Theta_e
332 331 330 328 328 328 329 328 329 328 329 329 327 325 325 324 327 332 334 334 334 332 329 327 331 333 333 333 332 332 331 330 329
331 330 329 328 327 328 328 329 328 326 329 329 324 322 324 329 331 330 331 331 329 329 329 328 330 333 333 331 330 329 329 328 327
330 329 328 328 327 327 328 327 328 329 329 326 323 323 327 330 328 326 325 326 326 326 324 326 329 332 331 330 328 327 326 325 324
329 328 328 327 326 326 327 326 327 329 326 322 322 324 329 327 324 325 327 326 326 324 324 325 325 327 326 325 324 322 321 321 321
328 326 327 327 326 325 326 326 327 326 324 323 326 328 327 324 324 322 324 324 326 324 322 324 324 323 322 322 321 321 320 321 322
327 325 326 326 325 324 325 325 328 325 323 326 327 326 324 323 323 323 323 325 325 325 322 323 322 321 320 321 321 321 319 320 320
325 325 325 324 325 323 325 323 327 324 326 327 328 324 323 323 322 323 324 325 324 321 322 320 321 321 319 320 320 319 320 319 319
323 325 324 324 323 324 327 325 326 323 324 328 326 323 322 322 322 322 322 326 322 320 321 321 321 319 319 318 320 319 318 318 318
321 324 324 323 322 326 326 324 324 323 325 327 325 323 322 322 322 320 320 322 324 321 320 320 320 319 319 318 318 318 318 318 318
321 324 324 323 322 326 326 324 324 325 326 326 324 322 321 321 320 320 320 324 321 320 322 320 320 319 320 317 318 317 318 317 318
321 323 324 323 321 324 325 324 324 325 325 325 324 322 321 320 319 319 319 321 319 321 321 319 319 319 319 317 317 317 316 316 317
321 323 323 322 321 322 324 324 323 324 325 324 323 321 320 319 318 318 319 318 318 319 320 320 319 319 318 316 317 316 316 315 316
322 322 322 322 321 323 323 323 322 325 326 324 322 320 319 319 318 318 317 318 318 319 318 318 319 318 317 317 316 315 316 316 315
323 322 322 322 321 322 323 322 323 325 324 323 322 320 319 319 318 319 318 317 317 317 317 317 317 316 317 316 315 315 314 314 315
322 322 322 321 321 322 323 323 323 324 323 321 321 320 319 319 317 317 316 316 317 317 315 315 314 316 315 315 315 314 313 314 316
323 322 322 321 320 321 322 322 322 322 320 319 319 319 318 317 317 315 314 315 315 316 316 315 314 314 315 314 314 314 313 313 313
323 322 321 321 319 320 320 321 322 320 321 321 316 316 315 316 316 316 315 315 314 313 313 314 314 314 314 313 313 313 313 313 314
323 322 320 320 320 319 318 320 320 320 320 319 319 315 319 313 315 315 315 315 314 312 310 308 311 313 312 312 311 311 313 313 314
321 322 319 319 320 318 319 319 319 320 319 318 318 318 315 319 315 312 314 314 314 312 309 306 306 305 308 309 310 311 312 313 314
319 321 319 318 318 319 316 317 320 320 320 318 313 313 313 313 312 314 310 311 313 313 310 308 308 308 306 303 305 311 311 312 312
Wind_Speed
13 13 14 15 16 14 13 13 14 12 14 14 16 13 13 20 18 16 23 24 22 21 17 16 16 17 17 22 21 21 22 21 20
13 13 14 15 16 15 14 14 12 13 13 13 14 14 20 17 19 23 19 17 19 18 18 17 16 17 21 21 20 19 19 19 18
14 13 14 16 16 16 16 14 12 13 15 13 13 19 18 20 20 18 15 15 12 14 14 15 15 20 20 20 19 19 18 18 18
15 15 15 15 16 17 18 16 15 15 14 11 18 19 19 19 17 17 16 14 14 14 14 13 13 16 17 16 16 15 16 16 16
15 15 16 17 17 19 20 17 18 16 14 18 16 20 20 18 16 15 12 13 13 13 13 13 11 11 14 14 14 15 16 17 18
17 16 17 18 16 20 22 19 19 17 16 19 18 20 18 17 15 13 12 14 13 13 13 14 12 12 13 14 15 16 16 17 17
16 19 18 17 17 20 20 20 22 19 18 19 17 17 15 11 13 12 11 13 13 11 11 12 13 13 14 15 15 16 16 17 16
17 21 18 17 18 19 20 22 25 22 23 21 19 17 15 13 13 10 10 12 12 11 11 12 13 14 14 14 15 15 15 15 16
21 23 22 20 22 23 23 24 25 24 24 22 18 17 14 11 12 11 11 13 13 11 10 12 12 12 13 14 14 14 14 15 15
24 25 24 23 23 22 22 25 27 26 23 21 19 17 11 12 12 12 10 14 11 11 10 11 12 11 12 12 12 13 13 13 14
27 27 26 25 25 24 21 27 27 26 23 22 20 17 12 16 13 12 8 15 9 11 9 9 10 11 11 11 11 11 11 12 12
29 30 29 27 25 25 24 26 26 25 25 23 21 18 12 17 15 13 8 9 7 8 9 9 9 9 10 10 10 10 10 11 11
33 32 31 29 27 28 26 27 21 24 25 23 22 22 15 18 15 15 12 10 9 9 8 7 7 9 8 8 9 9 9 10 11
35 34 33 31 29 30 28 25 25 23 18 22 24 22 20 18 16 15 12 12 9 8 9 9 7 7 7 7 7 8 8 9 9
34 32 33 33 32 32 30 27 22 24 21 19 25 23 21 20 16 14 13 11 11 11 11 10 7 7 7 6 7 6 7 10 10
33 32 30 31 31 34 31 26 26 23 22 22 20 19 18 18 17 15 13 11 10 12 12 11 11 7 8 7 5 5 6 7 7
31 32 34 29 25 28 33 28 23 21 27 14 10 3 5 13 16 16 15 12 11 12 13 13 13 12 12 9 7 5 4 6 7
35 36 35 34 31 31 33 26 27 21 25 22 10 3 3 6 11 18 19 17 16 14 13 14 15 15 13 10 9 7 5 5 6
37 39 38 38 35 32 35 31 31 26 22 22 14 10 12 4 3 13 21 21 20 17 15 15 14 14 14 13 11 9 7 6 6
40 42 42 41 40 34 33 35 30 29 27 22 14 14 12 11 3 3 7 21 24 21 19 17 16 14 12 11 12 13 11 8 6
Wind_Direction
166 153 143 138 135 134 139 138 143 142 130 122 125 122 126 118 110 94 92 90 93 87 91 92 85 76 82 82 77 73 70 67 63
170 158 149 142 138 138 142 149 148 139 132 133 130 124 129 110 104 100 91 91 89 88 87 95 82 79 85 82 77 70 66 66 60
169 159 153 148 144 144 145 149 140 135 139 141 138 138 124 117 105 92 84 98 99 97 94 101 84 80 82 78 73 71 68 64 62
167 162 156 154 149 148 148 147 143 139 141 135 140 140 133 114 99 95 95 102 97 101 104 104 95 76 78 74 72 72 71 67 64
170 170 162 157 157 153 151 151 146 150 143 135 138 137 125 111 106 100 103 101 102 99 102 111 103 93 77 72 77 77 75 70 66
172 171 161 163 162 158 154 158 150 156 150 148 148 138 124 114 108 114 122 105 102 99 98 99 102 96 89 81 80 81 77 75 70
183 167 169 167 164 161 159 160 161 159 150 151 153 136 122 115 112 122 118 115 106 105 103 105 100 97 92 88 84 80 80 76 74
182 170 172 169 168 163 165 165 162 162 157 155 152 141 126 121 120 128 136 122 118 108 112 105 101 97 95 89 89 80 78 77 74
184 178 178 176 175 173 172 171 167 163 161 159 156 151 132 123 126 134 130 145 123 115 111 115 103 104 98 93 88 85 77 77 74
187 183 183 183 180 179 175 174 168 163 163 165 163 152 154 143 131 140 149 117 127 120 122 113 106 104 101 95 91 86 83 80 75
189 186 185 186 185 180 183 175 170 167 166 163 159 155 164 151 140 148 179 125 129 128 125 119 114 111 102 98 93 90 84 81 74
195 189 188 188 187 182 185 177 174 169 167 166 161 155 161 152 149 152 156 129 145 130 126 118 120 109 106 103 95 93 86 83 74
197 193 191 190 186 185 184 178 171 170 168 162 164 155 165 158 154 156 157 157 153 139 131 127 122 112 116 106 105 96 89 84 79
201 195 195 187 188 186 187 179 176 170 168 165 164 162 162 165 164 169 170 174 173 164 158 142 138 133 119 119 108 107 102 97 84
202 194 195 189 187 186 188 182 176 173 169 159 163 166 168 170 173 179 181 183 187 185 175 163 157 148 143 127 124 107 110 106 98
204 193 195 197 189 187 188 179 172 167 166 147 148 159 171 177 182 187 194 201 201 204 204 193 182 167 162 149 143 124 121 122 110
204 201 197 199 194 188 190 183 169 176 175 162 137 138 162 198 196 196 203 216 219 215 218 210 205 193 185 171 163 155 136 130 124
206 203 191 194 205 200 196 187 181 178 183 179 165 147 175 143 207 209 212 217 231 228 224 221 209 207 208 205 196 177 166 155 146
203 204 197 192 198 199 205 202 198 184 188 181 188 192 150 164 179 218 217 219 227 231 226 220 218 217 220 219 208 185 179 180 158
203 205 195 193 194 192 207 210 198 194 190 187 182 155 138 136 137 171 198 221 220 226 227 224 223 219 217 218 211 196 190 193 195